Hourly Data Report for May 18, 2012

All times are specified in Local Standard Time (LST). Add 1 hour to adjust for Daylight Saving Time where and when it is observed.

SAULT STE MARIE A
ONTARIO

46°29'06.000" N
84°30'35.000" W
192.00 m
6057591
71260
YAM

Download Data

Hourly Data (May 2012)
Hourly Data Report for May 18, 2012
Temp Definition
°C
Dew Point Temp Definition
°C
Rel Hum Definition
%
Wind Dir Definition
10's deg

Wind Spd Definition
km/h
Visibility Definition
km
Stn Press Definition
kPa
Hmdx Definition


Wind Chill Definition


Weather Definition


TIME
00:00 Legend Double Dagger 9.4 3.4 66 12 9 10.0 99.52     LegendNANA
01:00 Legend Double Dagger 9.8 3.4 64 15 7 10.0 99.51     Cloudy
02:00 Legend Double Dagger 8.4 3.5 71 9 8 10.0 99.54     LegendNANA
03:00 Legend Double Dagger 9.5 4.3 70 10 12 10.0 99.51     LegendNANA
04:00 Legend Double Dagger 9.3 4.1 70 9 12 10.0 99.48     Cloudy
05:00 Legend Double Dagger 8.7 5.8 82 6 13 10.0 99.55     Rain Showers
06:00 Legend Double Dagger 8.2 6.8 91 8 10 10.0 99.57     Rain Showers
07:00 Legend Double Dagger 8.5 7.3 92 8 12 10.0 99.62     Cloudy
08:00 Legend Double Dagger 8.7 7.5 92 8 11 10.0 99.64     Rain Showers
09:00 Legend Double Dagger 8.6 8.0 96 9 12 10.0 99.63     Rain Showers
10:00 Legend Double Dagger 9.0 8.7 98 9 11 10.0 99.53     Rain Showers
11:00 Legend Double Dagger 10.3 9.9 97 9 10 10.0 99.46     Rain Showers
12:00 Legend Double Dagger 11.3 10.1 92 8 14 10.0 99.35     LegendNANA
13:00 Legend Double Dagger 11.5 10.4 93 13 9 10.0 99.39     Rain Showers
14:00 Legend Double Dagger 12.6 11.0 90 9 19 10.0 99.38     LegendNANA
15:00 Legend Double Dagger 17.0 11.8 71 12 17 10.0 99.29     LegendNANA
16:00 Legend Double Dagger 19.8 13.1 65 4 16 10.0 99.24     Mostly Cloudy
17:00 Legend Double Dagger 20.2 12.8 62 7 17 10.0 99.21     LegendNANA
18:00 Legend Double Dagger 19.6 12.0 61 9 15 10.0 99.22     LegendNANA
19:00 Legend Double Dagger 17.6 10.1 61 10 13 10.0 99.21     Mainly Clear
20:00 Legend Double Dagger 14.6 7.2 61 11 15 10.0 99.25     LegendNANA
21:00 Legend Double Dagger 11.9 6.4 69 9 12 10.0 99.33     LegendNANA
22:00 Legend Double Dagger 11.7 6.2 69 10 12 10.0 99.38     Mainly Clear
23:00 Legend Double Dagger 10.7 5.5 70 8 13 10.0 99.41     LegendNANA

Notes on Data Quality.

Legend

  • E = Estimated
  • M = Missing
  • NA = Not Available
  • ‡ = Partner data that is not subject to review by the National Climate Archives
Date modified: